Location: Newark
(39.0622°N, 106.5590°E)
Time: 16:39:57
(UTC+00:00)

Courier 1B - Pass Details

Date: 29 January 2020
Orbit: 962 x 1209 km, 28.3° (Epoch: 17 February)

Event Time Altitude Azimuth Distance (km) Brightness Sun altitude
Rises 19:30:15 0° 249° (WSW) 3,765 - -52.4°
Reaches altitude 10° 19:33:07 10° 240° (WSW) 2,849 - -51.9°
Maximum altitude 19:39:20 35° 177° (S) 1,680 - -50.8°
Exits shadow 19:45:43 11° 116° (ESE) 2,960 10.3 -49.7°
Drops below altitude 10° 19:45:54 10° 115° (ESE) 3,016 10.3 -49.6°
Sets 19:49:01 0° 107° (ESE) 4,012 11.2 -49.0°
